,,,PA_Meas_PMT16A,,PR_Meas_QMR101_102,,RH_Meas_QMH101,,SR_Meas_QMS101,,TA_Meas_QMH101,,GenWind,,GenWind,
date,time,status,PA,status,PR,status,RH,status,SR,status,TA,status,DirAvg,status,SpdAvg,
2010-10-30, 00:00:04,VALID,1008.75,VALID,0,VALID,103.664,VALID,0,VALID,23.1874,VALID,137,VALID,1.0293,
2010-10-30, 00:01:04,VALID,1008.72,VALID,0,VALID,103.672,VALID,0,VALID,23.1874,VALID,135,VALID,0.752344,
2010-10-30, 00:02:04,VALID,1008.7,VALID,0,VALID,103.672,VALID,0,VALID,23.1874,VALID,132,VALID,0.790234,
2010-10-30, 00:03:04,VALID,1008.69,VALID,0,VALID,103.68,VALID,0.105969,VALID,23.1874,VALID,138,VALID,0.800391,
2010-10-30, 00:04:04,VALID,1008.7,VALID,0,VALID,103.695,VALID,0.105969,VALID,23.1679,VALID,126,VALID,0.651563,
2010-10-30, 00:05:04,VALID,1008.72,VALID,0,VALID,103.672,VALID,0,VALID,23.1467,VALID,138,VALID,0.475391,
2010-10-30, 00:06:04,VALID,1008.74,VALID,0,VALID,103.687,VALID,0.105969,VALID,23.1679,VALID,138,VALID,0.0714844,
2010-10-30, 00:07:04,VALID,1008.72,VALID,0,VALID,103.687,VALID,0.105969,VALID,23.1679,VALID,138,VALID,0.223828,
2010-10-30, 00:08:04,VALID,1008.68,VALID,0,VALID,103.695,VALID,0.105969,VALID,23.1679,VALID,138,VALID,0.507031,
2010-10-30, 00:09:04,VALID,1008.63,VALID,0,VALID,103.695,VALID,0.105969,VALID,23.1679,VALID,138,VALID,0.513672,
2010-10-30, 00:10:04,VALID,1008.61,VALID,0,VALID,103.695,VALID,0.105969,VALID,23.1467,VALID,138,VALID,0.420312,
2010-10-30, 00:11:04,VALID,1008.6,VALID,0,VALID,103.695,VALID,0.105969,VALID,23.1662,VALID,131,VALID,0.694141,
2010-10-30, 00:12:04,VALID,1008.61,VALID,0,VALID,103.695,VALID,0,VALID,23.1662,VALID,127,VALID,0.0449219,
2010-10-30, 00:13:04,VALID,1008.6,VALID,0,VALID,103.695,VALID,0.105969,VALID,23.1857,VALID,127,VALID,0,
2010-10-30, 00:14:04,VALID,1008.59,VALID,0,VALID,103.703,VALID,0.105969,VALID,23.1874,VALID,127,VALID,0,
2010-10-30, 00:15:04,VALID,1008.59,VALID,0,VALID,103.703,VALID,0.105969,VALID,23.1874,VALID,127,VALID,0,
2010-10-30, 00:16:04,VALID,1008.59,VALID,0,VALID,103.687,VALID,0.105969,VALID,23.1662,VALID,127,VALID,0,
2010-10-30, 00:17:04,VALID,1008.6,VALID,0,VALID,103.703,VALID,0,VALID,23.1662,VALID,127,VALID,0,
2010-10-30, 00:18:04,VALID,1008.61,VALID,0,VALID,103.687,VALID,0,VALID,23.1874,VALID,127,VALID,0.312109,
2010-10-30, 00:19:04,VALID,1008.62,VALID,0,VALID,103.695,VALID,0.105969,VALID,23.1857,VALID,127,VALID,0.191406,
2010-10-30, 00:20:04,VALID,1008.59,VALID,0,VALID,103.68,VALID,0,VALID,23.2069,VALID,127,VALID,0,
2010-10-30, 00:21:04,VALID,1008.59,VALID,0,VALID,103.68,VALID,0.105969,VALID,23.1857,VALID,127,VALID,0,
2010-10-30, 00:22:04,VALID,1008.59,VALID,0,VALID,103.68,VALID,0,VALID,23.2069,VALID,127,VALID,0,
2010-10-30, 00:23:04,VALID,1008.59,VALID,0,VALID,103.703,VALID,0,VALID,23.2069,VALID,127,VALID,0,
2010-10-30, 00:24:04,VALID,1008.59,VALID,0,VALID,103.687,VALID,0,VALID,23.1662,VALID,127,VALID,0,
2010-10-30, 00:25:04,VALID,1008.59,VALID,0,VALID,103.71,VALID,0,VALID,23.1662,VALID,127,VALID,0,
2010-10-30, 00:26:04,VALID,1008.56,VALID,0,VALID,103.687,VALID,0,VALID,23.1662,VALID,127,VALID,0,
2010-10-30, 00:27:04,VALID,1008.56,VALID,0,VALID,103.68,VALID,0,VALID,23.1662,VALID,127,VALID,0,
2010-10-30, 00:28:04,VALID,1008.56,VALID,0,VALID,103.68,VALID,0,VALID,23.1874,VALID,127,VALID,0,
2010-10-30, 00:29:04,VALID,1008.56,VALID,0,VALID,103.695,VALID,0,VALID,23.1874,VALID,127,VALID,0,
2010-10-30, 00:30:04,VALID,1008.55,VALID,0,VALID,103.672,VALID,0,VALID,23.1874,VALID,127,VALID,0,
2010-10-30, 00:31:04,VALID,1008.54,VALID,0,VALID,103.657,VALID,0,VALID,23.1662,VALID,127,VALID,0,
2010-10-30, 00:32:04,VALID,1008.49,VALID,0,VALID,103.68,VALID,0.105969,VALID,23.1662,VALID,127,VALID,0,
2010-10-30, 00:33:04,VALID,1008.46,VALID,0,VALID,103.68,VALID,0,VALID,23.1874,VALID,127,VALID,0,
2010-10-30, 00:34:04,VALID,1008.46,VALID,0,VALID,103.672,VALID,0,VALID,23.1874,VALID,127,VALID,0,
2010-10-30, 00:35:04,VALID,1008.47,VALID,0,VALID,103.687,VALID,0,VALID,23.1874,VALID,127,VALID,0,
2010-10-30, 00:36:04,VALID,1008.49,VALID,0,VALID,103.687,VALID,0.105969,VALID,23.1874,VALID,127,VALID,0,
2010-10-30, 00:37:04,VALID,1008.48,VALID,0,VALID,103.703,VALID,0,VALID,23.1662,VALID,127,VALID,0,
2010-10-30, 00:38:04,VALID,1008.51,VALID,0,VALID,103.703,VALID,0.105969,VALID,23.1662,VALID,127,VALID,0,
2010-10-30, 00:39:04,VALID,1008.52,VALID,0,VALID,103.718,VALID,0.105969,VALID,23.1662,VALID,127,VALID,0,
2010-10-30, 00:40:04,VALID,1008.51,VALID,0,VALID,103.733,VALID,0.105969,VALID,23.1679,VALID,127,VALID,0,
2010-10-30, 00:41:04,VALID,1008.55,VALID,0,VALID,103.718,VALID,0,VALID,23.1662,VALID,127,VALID,0,
2010-10-30, 00:42:04,VALID,1008.54,VALID,0,VALID,103.718,VALID,0.105969,VALID,23.1662,VALID,127,VALID,0,
2010-10-30, 00:43:04,VALID,1008.54,VALID,0,VALID,103.726,VALID,0,VALID,23.1679,VALID,127,VALID,0,
2010-10-30, 00:44:04,VALID,1008.52,VALID,0,VALID,103.726,VALID,0,VALID,23.1679,VALID,127,VALID,0,
2010-10-30, 00:45:04,VALID,1008.51,VALID,0,VALID,103.748,VALID,0.105969,VALID,23.1679,VALID,127,VALID,0,
2010-10-30, 00:46:04,VALID,1008.47,VALID,0,VALID,103.726,VALID,0,VALID,23.1467,VALID,127,VALID,0,
2010-10-30, 00:47:04,VALID,1008.47,VALID,0,VALID,103.741,VALID,0,VALID,23.1467,VALID,127,VALID,0,
2010-10-30, 00:48:04,VALID,1008.44,VALID,0,VALID,103.748,VALID,0.105969,VALID,23.1679,VALID,127,VALID,0,
2010-10-30, 00:49:04,VALID,1008.44,VALID,0,VALID,103.756,VALID,0,VALID,23.1272,VALID,127,VALID,0,
2010-10-30, 00:50:04,VALID,1008.44,VALID,0,VALID,103.748,VALID,0,VALID,23.1679,VALID,127,VALID,0,
2010-10-30, 00:51:04,VALID,1008.42,VALID,0,VALID,103.741,VALID,0,VALID,23.1272,VALID,127,VALID,0,
2010-10-30, 00:52:04,VALID,1008.41,VALID,0,VALID,103.764,VALID,0,VALID,23.1077,VALID,127,VALID,0,
2010-10-30, 00:53:04,VALID,1008.4,VALID,0,VALID,103.741,VALID,0,VALID,23.1272,VALID,127,VALID,0,
2010-10-30, 00:54:04,VALID,1008.4,VALID,0,VALID,103.771,VALID,0,VALID,23.1485,VALID,127,VALID,0,
2010-10-30, 00:55:04,VALID,1008.36,VALID,0,VALID,103.756,VALID,0,VALID,23.1485,VALID,127,VALID,0,
2010-10-30, 00:56:04,VALID,1008.35,VALID,0,VALID,103.771,VALID,0,VALID,23.1485,VALID,127,VALID,0,
2010-10-30, 00:57:04,VALID,1008.35,VALID,0,VALID,103.779,VALID,0,VALID,23.1272,VALID,127,VALID,0,
2010-10-30, 00:58:04,VALID,1008.34,VALID,0,VALID,103.771,VALID,0,VALID,23.129,VALID,127,VALID,0,
2010-10-30, 00:59:04,VALID,1008.34,VALID,0,VALID,103.779,VALID,0,VALID,23.129,VALID,127,VALID,0,
2010-10-30, 01:00:04,VALID,1008.32,VALID,0,VALID,103.809,VALID,0,VALID,23.129,VALID,127,VALID,0,
2010-10-30, 01:01:04,VALID,1008.32,VALID,0,VALID,103.794,VALID,0,VALID,23.1077,VALID,127,VALID,0,
2010-10-30, 01:02:04,VALID,1008.3,VALID,0,VALID,103.771,VALID,0,VALID,23.129,VALID,127,VALID,0,
2010-10-30, 01:03:04,VALID,1008.28,VALID,0,VALID,103.771,VALID,0,VALID,23.0883,VALID,127,VALID,0,
2010-10-30, 01:04:04,VALID,1008.26,VALID,0,VALID,103.779,VALID,0,VALID,23.129,VALID,127,VALID,0,
2010-10-30, 01:05:04,VALID,1008.28,VALID,0,VALID,103.771,VALID,0,VALID,23.1485,VALID,127,VALID,0,
2010-10-30, 01:06:04,VALID,1008.26,VALID,0,VALID,103.771,VALID,0,VALID,23.1485,VALID,127,VALID,0,
2010-10-30, 01:07:04,VALID,1008.2,VALID,0,VALID,103.771,VALID,0.105969,VALID,23.1485,VALID,127,VALID,0,
2010-10-30, 01:08:04,VALID,1008.19,VALID,0,VALID,103.771,VALID,0,VALID,23.1485,VALID,127,VALID,0,
2010-10-30, 01:09:04,VALID,1008.15,VALID,0,VALID,103.771,VALID,0,VALID,23.1485,VALID,127,VALID,0,
2010-10-30, 01:10:04,VALID,1008.17,VALID,0,VALID,103.771,VALID,0,VALID,23.1485,VALID,127,VALID,0,
2010-10-30, 01:11:04,VALID,1008.13,VALID,0,VALID,103.771,VALID,0,VALID,23.1697,VALID,127,VALID,0,
2010-10-30, 01:12:04,VALID,1008.12,VALID,0,VALID,103.794,VALID,0,VALID,23.1485,VALID,127,VALID,0,
2010-10-30, 01:13:04,VALID,1008.11,VALID,0,VALID,103.779,VALID,0,VALID,23.129,VALID,127,VALID,0,
2010-10-30, 01:14:04,VALID,1008.11,VALID,0,VALID,103.779,VALID,0,VALID,23.1485,VALID,127,VALID,0,
2010-10-30, 01:15:04,VALID,1008.13,VALID,0,VALID,103.787,VALID,0,VALID,23.1485,VALID,127,VALID,0,
2010-10-30, 01:16:04,VALID,1008.09,VALID,0,VALID,103.802,VALID,0,VALID,23.1077,VALID,127,VALID,0,
2010-10-30, 01:17:04,VALID,1008.09,VALID,0,VALID,103.779,VALID,0,VALID,23.1095,VALID,127,VALID,0,
2010-10-30, 01:18:04,VALID,1008.09,VALID,0,VALID,103.787,VALID,0.105969,VALID,23.0883,VALID,127,VALID,0,
2010-10-30, 01:19:04,VALID,1008.12,VALID,0,VALID,103.809,VALID,0,VALID,23.129,VALID,127,VALID,0,
2010-10-30, 01:20:04,VALID,1008.11,VALID,0,VALID,103.779,VALID,0,VALID,23.1485,VALID,127,VALID,0,
2010-10-30, 01:21:04,VALID,1008.11,VALID,0,VALID,103.779,VALID,0,VALID,23.1272,VALID,127,VALID,0,
2010-10-30, 01:22:04,VALID,1008.12,VALID,0,VALID,103.794,VALID,0.105969,VALID,23.1077,VALID,127,VALID,0,
2010-10-30, 01:23:04,VALID,1008.1,VALID,0,VALID,103.802,VALID,0,VALID,23.129,VALID,127,VALID,0,
2010-10-30, 01:24:04,VALID,1008.1,VALID,0,VALID,103.794,VALID,0,VALID,23.129,VALID,127,VALID,0,
2010-10-30, 01:25:04,VALID,1008.09,VALID,0,VALID,103.802,VALID,0,VALID,23.129,VALID,127,VALID,0,
2010-10-30, 01:26:04,VALID,1008.09,VALID,0,VALID,103.809,VALID,0,VALID,23.1485,VALID,127,VALID,0,
2010-10-30, 01:27:04,VALID,1008.07,VALID,0,VALID,103.787,VALID,0,VALID,23.0883,VALID,127,VALID,0,
2010-10-30, 01:28:04,VALID,1008.06,VALID,0,VALID,103.802,VALID,0,VALID,23.0883,VALID,127,VALID,0,
2010-10-30, 01:29:04,VALID,1008.04,VALID,0,VALID,103.825,VALID,0,VALID,23.1095,VALID,127,VALID,0,
2010-10-30, 01:30:04,VALID,1008.02,VALID,0,VALID,103.817,VALID,0,VALID,23.09,VALID,127,VALID,0,
2010-10-30, 01:31:04,VALID,1007.99,VALID,0,VALID,103.825,VALID,0,VALID,23.1095,VALID,127,VALID,0,
2010-10-30, 01:32:04,VALID,1007.98,VALID,0,VALID,103.802,VALID,0,VALID,23.1095,VALID,127,VALID,0,
2010-10-30, 01:33:04,VALID,1008,VALID,0,VALID,103.809,VALID,0,VALID,23.1095,VALID,127,VALID,0,
2010-10-30, 01:34:04,VALID,1007.99,VALID,0,VALID,103.802,VALID,0,VALID,23.129,VALID,127,VALID,0,
2010-10-30, 01:35:04,VALID,1008.01,VALID,0,VALID,103.794,VALID,0,VALID,23.1485,VALID,127,VALID,0,
2010-10-30, 01:36:04,VALID,1008,VALID,0,VALID,103.794,VALID,0,VALID,23.1485,VALID,127,VALID,0,
2010-10-30, 01:37:04,VALID,1008.01,VALID,0,VALID,103.787,VALID,0,VALID,23.1679,VALID,127,VALID,0,
2010-10-30, 01:38:04,VALID,1008.01,VALID,0,VALID,103.817,VALID,0,VALID,23.1679,VALID,127,VALID,0,
2010-10-30, 01:39:04,VALID,1008.07,VALID,0,VALID,103.825,VALID,0,VALID,23.1679,VALID,127,VALID,0,
2010-10-30, 01:40:04,VALID,1008.02,VALID,0,VALID,103.817,VALID,0,VALID,23.1679,VALID,127,VALID,0,
2010-10-30, 01:41:04,VALID,1008.04,VALID,0,VALID,103.832,VALID,0,VALID,23.1679,VALID,127,VALID,0,
2010-10-30, 01:42:04,VALID,1008.05,VALID,0,VALID,103.84,VALID,0,VALID,23.1679,VALID,127,VALID,0,
2010-10-30, 01:43:04,VALID,1008.05,VALID,0,VALID,103.825,VALID,0,VALID,23.1485,VALID,127,VALID,0,
2010-10-30, 01:44:04,VALID,1008.04,VALID,0,VALID,103.825,VALID,0,VALID,23.129,VALID,127,VALID,0,
2010-10-30, 01:45:04,VALID,1008.06,VALID,0,VALID,103.809,VALID,0,VALID,23.1307,VALID,127,VALID,0,
2010-10-30, 01:46:04,VALID,1008.07,VALID,0,VALID,103.809,VALID,0.105969,VALID,23.1095,VALID,127,VALID,0,
2010-10-30, 01:47:04,VALID,1008.05,VALID,0,VALID,103.794,VALID,0,VALID,23.0883,VALID,127,VALID,0,
2010-10-30, 01:48:04,VALID,1008.06,VALID,0,VALID,103.787,VALID,0,VALID,23.1095,VALID,127,VALID,0,
2010-10-30, 01:49:04,VALID,1008,VALID,0,VALID,103.825,VALID,0,VALID,23.1095,VALID,127,VALID,0,
2010-10-30, 01:50:04,VALID,1007.99,VALID,0,VALID,103.817,VALID,0.105969,VALID,23.1095,VALID,127,VALID,0,
2010-10-30, 01:51:04,VALID,1007.99,VALID,0,VALID,103.809,VALID,0.105969,VALID,23.1077,VALID,127,VALID,0,
2010-10-30, 01:52:04,VALID,1008.01,VALID,0,VALID,103.794,VALID,0,VALID,23.0883,VALID,127,VALID,0,
2010-10-30, 01:53:04,VALID,1007.99,VALID,0,VALID,103.809,VALID,0,VALID,23.1095,VALID,127,VALID,0,
2010-10-30, 01:54:04,VALID,1008.02,VALID,0,VALID,103.832,VALID,0,VALID,23.09,VALID,127,VALID,0,
2010-10-30, 01:55:04,VALID,1008,VALID,0,VALID,103.817,VALID,0,VALID,23.09,VALID,127,VALID,0,
2010-10-30, 01:56:04,VALID,1008.03,VALID,0,VALID,103.809,VALID,0,VALID,23.0705,VALID,127,VALID,0,
2010-10-30, 01:57:04,VALID,1007.98,VALID,0,VALID,103.817,VALID,0,VALID,23.0723,VALID,127,VALID,0,
2010-10-30, 01:58:04,VALID,1007.98,VALID,0,VALID,103.832,VALID,0,VALID,23.0705,VALID,127,VALID,0,
2010-10-30, 01:59:04,VALID,1007.96,VALID,0,VALID,103.825,VALID,0,VALID,23.0723,VALID,127,VALID,0,
2010-10-30, 02:00:04,VALID,1007.94,VALID,0,VALID,103.809,VALID,0,VALID,23.0723,VALID,127,VALID,0,
2010-10-30, 02:01:04,VALID,1007.94,VALID,0,VALID,103.809,VALID,0,VALID,23.0918,VALID,127,VALID,0,
2010-10-30, 02:02:04,VALID,1007.92,VALID,0,VALID,103.809,VALID,0,VALID,23.0705,VALID,127,VALID,0,
2010-10-30, 02:03:04,VALID,1007.9,VALID,0,VALID,103.802,VALID,0,VALID,23.0705,VALID,127,VALID,0,
2010-10-30, 02:04:04,VALID,1007.89,VALID,0,VALID,103.84,VALID,0,VALID,23.09,VALID,127,VALID,0,
2010-10-30, 02:05:04,VALID,1007.9,VALID,0,VALID,103.832,VALID,0,VALID,23.09,VALID,127,VALID,0,
2010-10-30, 02:06:04,VALID,1007.87,VALID,0,VALID,103.832,VALID,0,VALID,23.0918,VALID,127,VALID,0,
2010-10-30, 02:07:04,VALID,1007.85,VALID,0,VALID,103.817,VALID,0,VALID,23.0918,VALID,127,VALID,0,
2010-10-30, 02:08:04,VALID,1007.82,VALID,0,VALID,103.817,VALID,0,VALID,23.0688,VALID,127,VALID,0,
2010-10-30, 02:09:04,VALID,1007.83,VALID,0,VALID,103.825,VALID,0.105969,VALID,23.0688,VALID,127,VALID,0,
2010-10-30, 02:10:04,VALID,1007.82,VALID,0,VALID,103.825,VALID,0.105969,VALID,23.0688,VALID,127,VALID,0,
2010-10-30, 02:11:04,VALID,1007.79,VALID,0,VALID,103.848,VALID,0.105969,VALID,23.0688,VALID,127,VALID,0,
2010-10-30, 02:12:04,VALID,1007.77,VALID,0,VALID,103.817,VALID,0.105969,VALID,23.0493,VALID,127,VALID,0,
2010-10-30, 02:13:04,VALID,1007.76,VALID,0,VALID,103.825,VALID,0,VALID,23.0511,VALID,106,VALID,0,
2010-10-30, 02:14:04,VALID,1007.75,VALID,0,VALID,103.848,VALID,0,VALID,23.0511,VALID,106,VALID,0,
2010-10-30, 02:15:04,VALID,1007.73,VALID,0,VALID,103.832,VALID,0,VALID,23.0298,VALID,79,VALID,0.579687,
2010-10-30, 02:16:04,VALID,1007.71,VALID,0,VALID,103.855,VALID,0.105969,VALID,23.0103,VALID,60,VALID,0.726563,
2010-10-30, 02:17:04,VALID,1007.69,VALID,0,VALID,103.848,VALID,0,VALID,23.0103,VALID,60,VALID,0.267969,
2010-10-30, 02:18:04,VALID,1007.68,VALID,0,VALID,103.832,VALID,0,VALID,23.0103,VALID,60,VALID,0.349219,
2010-10-30, 02:19:04,VALID,1007.68,VALID,0,VALID,103.848,VALID,0.105969,VALID,22.9926,VALID,50,VALID,0.216797,
2010-10-30, 02:20:04,VALID,1007.67,VALID,0,VALID,103.832,VALID,0,VALID,22.9714,VALID,50,VALID,0.271875,
2010-10-30, 02:21:04,VALID,1007.66,VALID,0,VALID,103.84,VALID,0.105969,VALID,22.9714,VALID,50,VALID,0.369922,
2010-10-30, 02:22:04,VALID,1007.62,VALID,0,VALID,103.825,VALID,0,VALID,22.9519,VALID,50,VALID,0.201562,
2010-10-30, 02:23:04,VALID,1007.59,VALID,0,VALID,103.84,VALID,0,VALID,22.9519,VALID,50,VALID,0.0539063,
2010-10-30, 02:24:04,VALID,1007.56,VALID,0,VALID,103.84,VALID,0,VALID,22.9714,VALID,50,VALID,0,
2010-10-30, 02:25:04,VALID,1007.55,VALID,0,VALID,103.832,VALID,0,VALID,22.9519,VALID,50,VALID,0.15625,
2010-10-30, 02:26:04,VALID,1007.53,VALID,0,VALID,103.832,VALID,0,VALID,22.9519,VALID,50,VALID,0.0359375,
2010-10-30, 02:27:04,VALID,1007.53,VALID,0,VALID,103.832,VALID,0,VALID,22.9536,VALID,50,VALID,0.383984,
2010-10-30, 02:28:04,VALID,1007.52,VALID,0,VALID,103.817,VALID,0,VALID,22.9536,VALID,50,VALID,0,
2010-10-30, 02:29:04,VALID,1007.53,VALID,0,VALID,103.832,VALID,0,VALID,22.9324,VALID,50,VALID,0,
2010-10-30, 02:30:04,VALID,1007.54,VALID,0,VALID,103.817,VALID,0.105969,VALID,22.9324,VALID,50,VALID,0,
2010-10-30, 02:31:04,VALID,1007.53,VALID,0,VALID,103.809,VALID,0.105969,VALID,22.9324,VALID,50,VALID,0,
2010-10-30, 02:32:04,VALID,1007.5,VALID,0,VALID,103.817,VALID,0,VALID,22.9536,VALID,50,VALID,0,
2010-10-30, 02:33:04,VALID,1007.51,VALID,0,VALID,103.832,VALID,0,VALID,22.9324,VALID,50,VALID,0,
2010-10-30, 02:34:04,VALID,1007.54,VALID,0,VALID,103.809,VALID,0,VALID,22.9324,VALID,80,VALID,0,
2010-10-30, 02:35:04,VALID,1007.56,VALID,0,VALID,103.84,VALID,0.105969,VALID,22.9519,VALID,80,VALID,0,
2010-10-30, 02:36:04,VALID,1007.57,VALID,0,VALID,103.809,VALID,0.105969,VALID,22.9714,VALID,80,VALID,0,
2010-10-30, 02:37:04,VALID,1007.59,VALID,0,VALID,103.809,VALID,0.105969,VALID,22.9519,VALID,80,VALID,0,
2010-10-30, 02:38:04,VALID,1007.57,VALID,0,VALID,103.779,VALID,0,VALID,22.9714,VALID,80,VALID,0,
2010-10-30, 02:39:04,VALID,1007.59,VALID,0,VALID,103.825,VALID,0,VALID,22.9714,VALID,80,VALID,0,
2010-10-30, 02:40:04,VALID,1007.58,VALID,0,VALID,103.794,VALID,0.105969,VALID,22.9519,VALID,80,VALID,0,
2010-10-30, 02:41:04,VALID,1007.55,VALID,0,VALID,103.794,VALID,0.105969,VALID,22.9714,VALID,80,VALID,0,
2010-10-30, 02:42:04,VALID,1007.51,VALID,0,VALID,103.802,VALID,0,VALID,22.9519,VALID,80,VALID,0,
2010-10-30, 02:43:04,VALID,1007.49,VALID,0,VALID,103.794,VALID,0.105969,VALID,22.9714,VALID,80,VALID,0,
2010-10-30, 02:44:04,VALID,1007.45,VALID,0,VALID,103.771,VALID,0.105969,VALID,22.9714,VALID,80,VALID,0,
2010-10-30, 02:45:04,VALID,1007.41,VALID,0,VALID,103.802,VALID,0.105969,VALID,22.9714,VALID,80,VALID,0,
2010-10-30, 02:46:04,VALID,1007.4,VALID,0,VALID,103.787,VALID,0.105969,VALID,22.9714,VALID,80,VALID,0,
2010-10-30, 02:47:04,VALID,1007.35,VALID,0,VALID,103.809,VALID,0.105969,VALID,22.9714,VALID,80,VALID,0,
2010-10-30, 02:48:04,VALID,1007.34,VALID,0,VALID,103.802,VALID,0.105969,VALID,22.9714,VALID,93,VALID,0.637109,
2010-10-30, 02:49:04,VALID,1007.32,VALID,0,VALID,103.779,VALID,0.105969,VALID,22.9731,VALID,96,VALID,0.582812,
2010-10-30, 02:50:04,VALID,1007.29,VALID,0,VALID,103.779,VALID,0.105969,VALID,22.9909,VALID,96,VALID,0.913281,
2010-10-30, 02:51:04,VALID,1007.25,VALID,0,VALID,103.794,VALID,0,VALID,22.9714,VALID,96,VALID,0.575,
2010-10-30, 02:52:04,VALID,1007.22,VALID,0,VALID,103.787,VALID,0.105969,VALID,22.9926,VALID,99,VALID,0.545313,
2010-10-30, 02:53:04,VALID,1007.22,VALID,0,VALID,103.764,VALID,0,VALID,22.9926,VALID,136,VALID,1.28867,
2010-10-30, 02:54:04,VALID,1007.2,VALID,0,VALID,103.771,VALID,0.105969,VALID,22.9909,VALID,128,VALID,0.780469,
2010-10-30, 02:55:04,VALID,1007.23,VALID,0,VALID,103.787,VALID,0.105969,VALID,22.9714,VALID,128,VALID,0.705078,
2010-10-30, 02:56:04,VALID,1007.21,VALID,0,VALID,103.809,VALID,0.105969,VALID,22.9519,VALID,128,VALID,0.999609,
2010-10-30, 02:57:04,VALID,1007.17,VALID,0,VALID,103.825,VALID,0.105969,VALID,22.9324,VALID,128,VALID,1.10469,
2010-10-30, 02:58:04,VALID,1007.18,VALID,0,VALID,103.832,VALID,0.105969,VALID,22.9129,VALID,128,VALID,0.9,
2010-10-30, 02:59:04,VALID,1007.16,VALID,0,VALID,103.809,VALID,0.105969,VALID,22.9147,VALID,114,VALID,0.650391,
2010-10-30, 03:00:04,VALID,1007.19,VALID,0,VALID,103.832,VALID,0,VALID,22.8952,VALID,113,VALID,0.826953,
2010-10-30, 03:01:04,VALID,1007.17,VALID,0,VALID,103.832,VALID,0,VALID,22.8935,VALID,112,VALID,0.939844,
2010-10-30, 03:02:04,VALID,1007.13,VALID,0,VALID,103.809,VALID,0.105969,VALID,22.874,VALID,111,VALID,0.821094,
2010-10-30, 03:03:04,VALID,1007.11,VALID,0,VALID,103.779,VALID,0.105969,VALID,22.874,VALID,113,VALID,0.644922,
2010-10-30, 03:04:04,VALID,1007.11,VALID,0,VALID,103.817,VALID,0.105969,VALID,22.8935,VALID,113,VALID,0.351563,
2010-10-30, 03:05:04,VALID,1007.1,VALID,0,VALID,103.825,VALID,0.105969,VALID,22.8545,VALID,142,VALID,0.952344,
2010-10-30, 03:06:04,VALID,1007.08,VALID,0,VALID,103.817,VALID,0.105969,VALID,22.8545,VALID,136,VALID,0.585156,
2010-10-30, 03:07:04,VALID,1007.07,VALID,0,VALID,103.809,VALID,0.105969,VALID,22.8757,VALID,136,VALID,0.366406,
2010-10-30, 03:08:04,VALID,1007.1,VALID,0,VALID,103.832,VALID,0,VALID,22.8562,VALID,136,VALID,0.166016,
2010-10-30, 03:09:04,VALID,1007.12,VALID,0,VALID,103.794,VALID,0,VALID,22.8562,VALID,136,VALID,0.676172,
2010-10-30, 03:10:04,VALID,1007.08,VALID,0,VALID,103.809,VALID,0,VALID,22.8562,VALID,136,VALID,0.130469,
2010-10-30, 03:11:04,VALID,1007.07,VALID,0,VALID,103.794,VALID,0,VALID,22.858,VALID,136,VALID,0,
2010-10-30, 03:12:04,VALID,1007.05,VALID,0,VALID,103.809,VALID,0,VALID,22.8368,VALID,136,VALID,0,
2010-10-30, 03:13:04,VALID,1007.03,VALID,0,VALID,103.809,VALID,0,VALID,22.8368,VALID,136,VALID,0,
2010-10-30, 03:14:04,VALID,1007.06,VALID,0,VALID,103.809,VALID,0,VALID,22.8368,VALID,136,VALID,0.00351562,
2010-10-30, 03:15:04,VALID,1007.07,VALID,0,VALID,103.794,VALID,0,VALID,22.858,VALID,136,VALID,0.307813,
2010-10-30, 03:16:04,VALID,1007.09,VALID,0,VALID,103.794,VALID,0,VALID,22.8368,VALID,136,VALID,0,
2010-10-30, 03:17:04,VALID,1007.1,VALID,0,VALID,103.779,VALID,0,VALID,22.8368,VALID,136,VALID,0,
2010-10-30, 03:18:04,VALID,1007.15,VALID,0,VALID,103.779,VALID,0,VALID,22.858,VALID,136,VALID,0.655078,
2010-10-30, 03:19:04,VALID,1007.17,VALID,0,VALID,103.794,VALID,0,VALID,22.8562,VALID,161,VALID,0.752344,
2010-10-30, 03:20:04,VALID,1007.27,VALID,0,VALID,103.748,VALID,0,VALID,22.8562,VALID,189,VALID,1.01992,
2010-10-30, 03:21:04,VALID,1007.34,VALID,0,VALID,103.741,VALID,0,VALID,22.8757,VALID,200,VALID,1.10625,
2010-10-30, 03:22:04,VALID,1007.39,VALID,0,VALID,103.748,VALID,0,VALID,22.8952,VALID,189,VALID,0.953516,
2010-10-30, 03:23:04,VALID,1007.4,VALID,0,VALID,103.726,VALID,0.105969,VALID,22.9129,VALID,190,VALID,0.690625,
2010-10-30, 03:24:04,VALID,1007.45,VALID,0,VALID,103.718,VALID,0.105969,VALID,22.9324,VALID,189,VALID,0.654688,
2010-10-30, 03:25:04,VALID,1007.47,VALID,0,VALID,103.71,VALID,0.105969,VALID,22.9714,VALID,206,VALID,0.719531,
2010-10-30, 03:26:04,VALID,1007.46,VALID,0,VALID,103.687,VALID,0.105969,VALID,23.0103,VALID,213,VALID,1.5543,
2010-10-30, 03:27:04,VALID,1007.45,VALID,0,VALID,103.68,VALID,0,VALID,23.0511,VALID,214,VALID,1.05664,
2010-10-30, 03:28:04,VALID,1007.45,VALID,0,VALID,103.664,VALID,0.105969,VALID,23.0688,VALID,187,VALID,0.907031,
2010-10-30, 03:29:04,VALID,1007.4,VALID,0,VALID,103.695,VALID,0.105969,VALID,23.1095,VALID,164,VALID,0.232812,
2010-10-30, 03:30:04,VALID,1007.44,VALID,0,VALID,103.703,VALID,0.105969,VALID,23.129,VALID,166,VALID,1.05117,
2010-10-30, 03:31:04,VALID,1007.5,VALID,0,VALID,103.687,VALID,0.105969,VALID,23.1467,VALID,185,VALID,1.57422,
2010-10-30, 03:32:04,VALID,1007.59,VALID,0,VALID,103.741,VALID,0.105969,VALID,23.1662,VALID,180,VALID,2.32031,
2010-10-30, 03:33:04,VALID,1007.63,VALID,0,VALID,103.741,VALID,0.105969,VALID,23.1857,VALID,168,VALID,1.74336,
2010-10-30, 03:34:04,VALID,1007.64,VALID,0,VALID,103.756,VALID,0.105969,VALID,23.2069,VALID,175,VALID,1.04141,
2010-10-30, 03:35:04,VALID,1007.65,VALID,0,VALID,103.748,VALID,0,VALID,23.2264,VALID,186,VALID,1.50234,
2010-10-30, 03:36:04,VALID,1007.69,VALID,0,VALID,103.794,VALID,0,VALID,23.2459,VALID,175,VALID,1.34375,
2010-10-30, 03:37:04,VALID,1007.68,VALID,0,VALID,103.787,VALID,0.105969,VALID,23.2441,VALID,175,VALID,1.13867,
2010-10-30, 03:38:04,VALID,1007.69,VALID,0,VALID,103.809,VALID,0.105969,VALID,23.2636,VALID,165,VALID,0.986328,
2010-10-30, 03:39:04,VALID,1007.73,VALID,0,VALID,103.817,VALID,0.105969,VALID,23.2831,VALID,149,VALID,0.8,
2010-10-30, 03:40:04,VALID,1007.78,VALID,0,VALID,103.817,VALID,0,VALID,23.3238,VALID,179,VALID,0.509375,
2010-10-30, 03:41:04,VALID,1007.8,VALID,0,VALID,103.809,VALID,0.105969,VALID,23.3433,VALID,181,VALID,1.00273,
2010-10-30, 03:42:04,VALID,1007.82,VALID,0,VALID,103.817,VALID,0.105969,VALID,23.3415,VALID,189,VALID,1.24922,
2010-10-30, 03:43:04,VALID,1007.81,VALID,0,VALID,103.809,VALID,0.105969,VALID,23.361,VALID,160,VALID,1.02617,
2010-10-30, 03:44:04,VALID,1007.83,VALID,0,VALID,103.809,VALID,0.105969,VALID,23.4017,VALID,174,VALID,1.29727,
2010-10-30, 03:45:04,VALID,1007.91,VALID,0,VALID,103.825,VALID,0.105969,VALID,23.4,VALID,174,VALID,0.895312,
2010-10-30, 03:46:04,VALID,1007.93,VALID,0,VALID,103.809,VALID,0.105969,VALID,23.4194,VALID,195,VALID,0.499609,
2010-10-30, 03:47:04,VALID,1007.99,VALID,0,VALID,103.794,VALID,0,VALID,23.4389,VALID,221,VALID,0.435156,
2010-10-30, 03:48:04,VALID,1008,VALID,0,VALID,103.802,VALID,0,VALID,23.4584,VALID,221,VALID,0,
2010-10-30, 03:49:04,VALID,1008.02,VALID,0,VALID,103.802,VALID,0.105969,VALID,23.4974,VALID,221,VALID,0,